Temp
14 14 13 12 12 11 11 11 11 10 10 9 9 9 9 9 10 10 12 12 13 14 14 15 15 15 14 15 17 18 19 19 19 19 18 17 17 16 16 15 15 16 16 15 16 14 14
13 14 13 13 12 11 11 11 10 10 10 9 9 9 8 8 10 11 11 13 13 12 13 14 14 14 14 17 18 18 19 19 19 18 18 18 17 17 16 15 15 15 15 14 14 15 15
13 14 14 13 13 12 11 11 10 10 10 10 9 10 9 8 10 9 12 12 13 13 13 14 13 13 14 16 18 18 18 18 18 18 17 18 18 17 16 15 15 15 14 13 13 13 14
13 13 14 13 13 13 11 11 11 10 10 9 9 9 9 9 10 10 12 13 13 14 14 14 13 13 14 18 18 18 18 18 19 18 18 18 18 15 15 15 13 13 11 11 13 13 14
11 12 13 13 13 13 12 10 11 10 10 10 9 8 9 9 11 11 13 14 14 14 14 13 13 13 15 17 18 18 18 18 18 18 17 17 16 13 12 12 10 9 10 11 12 12 12
9 10 11 13 13 13 12 10 10 10 9 9 9 8 8 9 11 13 13 13 14 14 13 12 12 14 15 16 17 18 18 17 16 16 16 14 10 11 10 10 11 11 10 11 11 11 12
8 9 10 11 12 12 12 11 10 10 9 9 9 8 8 9 11 13 13 14 13 12 12 14 14 15 16 17 17 17 17 17 15 14 13 12 11 11 12 13 13 12 11 9 11 11 11
8 8 9 10 11 12 11 11 10 10 9 9 9 8 8 10 11 12 13 11 11 11 11 13 13 14 16 16 16 17 17 15 14 12 13 11 10 13 13 13 11 11 10 9 11 12 12
7 8 8 8 9 10 12 11 10 9 9 9 9 8 8 10 10 12 12 11 11 11 11 13 13 14 15 16 15 15 16 14 13 13 12 11 12 13 12 11 10 10 9 10 10 11 11
7 7 7 7 8 9 10 11 10 9 8 8 8 7 8 9 11 11 10 11 11 11 10 13 13 14 15 15 15 16 16 15 14 13 11 11 12 11 11 11 10 9 11 10 9 9 8
7 6 7 7 7 8 9 11 9 8 7 7 7 6 8 9 10 9 11 11 11 11 12 14 14 16 14 15 14 15 15 15 13 13 12 12 12 11 11 11 11 9 10 9 10 9 8
6 6 6 7 7 8 9 10 9 8 6 6 5 5 7 8 8 10 11 11 11 10 11 13 14 14 14 15 15 14 14 13 13 11 11 11 11 11 11 12 11 11 9 9 9 8 8
6 6 5 6 7 8 9 9 9 7 6 5 4 5 5 7 8 10 11 9 10 10 14 13 13 14 13 13 14 13 12 11 11 11 10 9 11 11 12 10 10 8 7 8 9 10 10
6 4 6 8 8 8 9 9 8 6 5 4 4 3 4 8 10 10 10 8 9 12 13 14 14 13 13 13 13 12 11 10 10 9 7 9 9 11 11 11 10 8 8 5 4 9 9
5 8 9 10 9 8 9 9 8 6 5 4 3 4 5 7 9 10 7 8 12 13 13 13 13 12 12 12 12 12 11 8 10 9 8 8 9 11 11 11 9 8 8 9 4 8 8
5 12 10 10 10 9 9 8 6 5 4 2 2 3 3 6 8 8 7 11 11 14 14 14 13 12 11 11 11 11 10 10 11 10 8 9 7 10 10 10 10 9 10 6 7 7 9
5 10 11 10 10 9 7 5 5 4 3 3 3 3 5 6 8 6 7 8 12 13 13 13 12 11 11 11 10 10 9 11 11 10 10 8 7 9 9 6 8 7 5 7 7 7 9
3 8 10 9 8 6 5 5 4 2 2 3 4 5 5 7 7 5 6 9 12 12 12 12 11 11 10 10 10 10 9 10 11 10 9 7 6 6 8 8 8 8 9 8 6 6 9
6 2 5 6 6 5 5 4 2 2 3 4 4 4 4 5 6 7 8 11 12 11 12 11 11 12 11 10 10 10 9 9 10 10 9 8 5 5 7 8 9 9 9 9 8 7 8
3 4 4 2 3 3 3 2 1 2 4 6 4 5 4 4 5 8 8 10 10 11 11 11 10 11 10 10 10 9 9 9 9 10 10 8 6 3 2 5 6 6 7 7 7 7 8
3 2 2 2 2 2 1 1 2 3 4 5 4 4 5 4 3 7 9 10 10 10 11 11 10 10 9 9 9 8 8 8 8 10 7 7 4 4 6 6 6 7 6 7 4 7 7
3 3 2 2 2 2 1 2 2 3 3 5 4 5 5 7 7 7 8 9 10 9 9 9 10 9 9 9 9 8 7 8 8 7 7 5 6 6 6 7 6 7 7 7 7 7 7
3 3 3 3 2 2 2 2 2 3 4 4 4 5 6 6 6 7 7 9 10 9 9 10 9 8 8 8 8 8 8 7 7 6 6 6 5 6 7 8 7 6 6 6 4 6 5
3 3 3 3 3 3 2 3 3 4 5 5 5 5 5 5 6 7 9 9 9 9 8 9 8 8 8 7 7 6 6 6 5 5 6 5 6 6 6 7 5 6 7 7 6 5 5
3 3 3 3 3 3 3 4 4 5 5 5 4 5 5 4 6 8 8 8 8 8 7 8 8 8 6 7 6 7 6 8 7 5 4 5 5 4 5 7 8 6 7 5 5 4 4
3 3 3 3 3 3 3 4 4 5 6 7 4 7 4 6 5 6 6 8 8 6 7 7 6 6 6 5 5 6 6 8 7 7 6 5 5 6 6 7 4 6 6 5 5 5 3
3 4 4 3 4 3 4 4 5 6 6 7 5 7 5 3 4 5 6 6 6 5 5 6 7 7 5 3 5 5 5 7 6 7 7 5 6 6 6 6 5 5 4 5 6 3 4
4 3 3 4 3 3 4 4 5 5 7 9 4 6 5 3 3 4 5 5 5 5 6 5 5 5 3 4 5 3 4 6 6 7 7 6 4 2 4 4 5 3 5 6 3 4 3
3 3 3 3 4 3 4 4 5 5 6 7 5 6 7 3 3 4 5 5 6 6 3 3 5 4 4 3 3 4 4 2 5 4 4 3 3 4 4 4 4 3 3 4 3 3 3
Height
779 780 781 784 786 788 790 790 791 793 795 797 797 796 796 795 795 795 794 792 790 789 787 787 786 785 784 783 780 778 779 780 780 780 779 780 783 785 788 790 789 791 790 789 786 786 783
772 773 775 777 779 780 784 785 788 788 790 795 794 793 794 793 792 793 792 792 789 789 787 786 784 784 786 786 780 778 777 778 779 780 780 780 782 782 787 790 791 790 790 791 788 783 779
762 764 768 768 771 773 776 780 783 787 786 787 790 788 789 790 789 791 790 789 788 787 787 785 785 783 785 781 779 778 776 778 778 779 779 779 779 783 786 790 788 789 793 792 788 786 782
756 755 759 762 763 765 769 771 775 781 781 783 784 787 787 787 787 789 789 786 786 785 785 785 785 784 782 778 777 778 776 776 778 779 778 779 779 783 788 788 793 796 802 809 792 791 784
751 751 749 750 755 757 760 765 765 772 777 777 779 783 782 784 785 786 787 785 784 783 784 784 786 783 781 778 778 777 776 776 776 778 778 779 780 793 796 801 811 815 820 812 803 795 795
744 745 745 741 742 747 750 755 760 762 769 774 779 777 781 783 782 784 784 783 781 781 783 785 785 786 779 779 778 777 776 776 777 778 781 784 795 804 812 814 822 821 821 809 809 800 795
739 738 737 738 733 737 740 742 750 754 759 766 772 775 776 780 781 782 783 781 782 783 782 780 779 778 778 778 778 777 777 777 779 784 792 796 806 814 810 807 807 810 814 816 805 796 799
730 732 729 730 730 728 732 734 739 747 752 756 765 770 773 776 779 780 780 780 780 785 785 777 779 777 775 778 781 778 778 782 785 795 794 807 814 804 804 806 810 812 816 811 794 790 793
720 721 721 721 723 724 721 729 731 733 743 748 757 764 769 772 777 779 778 780 781 782 789 777 774 775 775 778 779 779 778 783 790 793 798 808 807 803 805 811 814 814 815 810 804 783 787
709 710 710 712 712 716 716 717 724 723 732 741 748 758 765 770 776 777 777 776 781 784 796 778 772 770 772 776 778 775 777 783 789 795 805 805 803 806 807 809 813 819 803 805 801 806 804
696 697 697 699 700 702 708 705 712 718 724 732 741 751 758 766 765 770 772 777 780 784 798 769 769 765 771 777 775 778 778 781 791 793 799 805 803 808 810 809 810 813 803 799 793 800 802
683 682 681 680 683 687 694 701 699 706 715 724 735 745 749 761 764 767 769 776 782 796 790 770 766 768 775 776 774 777 780 784 791 799 803 804 804 806 806 805 807 803 801 793 791 798 797
666 662 657 654 657 665 676 687 691 700 705 714 732 737 741 756 756 766 766 775 792 795 759 766 767 766 774 779 780 778 786 794 800 805 812 813 808 806 805 813 809 810 809 813 797 788 781
648 635 626 621 625 638 655 669 681 695 700 709 722 736 737 756 757 764 766 779 787 761 761 754 760 768 774 775 782 784 790 802 800 806 825 822 822 809 808 809 810 814 815 839 856 804 788
622 601 592 591 597 613 632 652 667 685 695 703 722 737 735 749 753 756 770 781 753 752 751 754 762 770 774 777 781 786 792 807 800 804 821 823 819 807 806 806 812 819 821 811 843 808 803
591 562 564 572 580 595 617 633 656 674 680 696 712 735 742 741 755 753 771 751 750 745 748 748 759 765 778 780 784 789 794 794 796 799 807 814 827 809 806 805 806 811 809 832 824 821 797
575 551 553 556 565 584 605 626 647 667 676 696 714 733 743 752 754 758 764 759 744 745 743 750 758 767 772 779 786 791 797 793 793 802 801 811 819 812 810 823 816 820 830 822 817 817 803
588 551 549 556 566 582 604 626 646 656 676 691 710 727 742 744 753 757 757 748 739 746 746 753 758 762 772 777 784 791 795 793 793 798 804 811 823 825 815 807 806 809 808 813 826 820 798
605 588 579 576 583 597 614 630 644 654 669 683 710 720 736 743 747 746 743 738 739 741 747 752 759 759 766 776 786 789 794 797 795 798 804 809 827 839 817 812 807 807 807 806 809 809 800
618 611 610 610 612 621 627 635 644 657 673 683 704 721 745 746 742 735 735 736 741 741 746 753 761 764 768 778 782 790 796 800 798 796 796 803 821 842 857 832 822 823 811 809 812 811 799
630 628 627 629 634 638 647 647 661 666 675 685 701 718 715 735 744 732 727 732 738 750 748 752 762 765 768 782 787 794 798 802 802 797 805 809 827 826 819 814 815 812 813 809 824 809 801
638 638 640 643 644 649 658 663 671 675 683 687 696 702 711 718 727 727 730 735 737 747 754 757 763 766 770 776 779 793 797 798 799 807 807 814 817 816 812 805 810 806 804 808 809 802 801
644 645 647 650 654 660 666 673 679 682 685 690 696 695 700 724 728 728 734 732 737 749 753 752 759 773 776 781 782 786 790 795 800 806 810 814 817 817 807 797 804 812 807 814 820 808 811
649 651 654 657 661 667 673 680 684 686 689 689 691 699 711 730 727 725 727 732 743 743 751 760 763 769 778 780 785 789 794 798 802 806 805 812 816 816 810 801 826 805 802 804 808 807 813
654 657 660 663 668 673 678 683 688 690 692 694 695 695 707 730 726 730 735 739 744 746 756 761 766 769 776 783 792 792 797 792 794 801 808 807 813 822 817 804 796 808 803 811 810 813 814
659 663 666 669 674 679 684 689 692 693 692 691 699 697 706 723 740 735 738 738 744 758 763 770 775 776 778 790 796 795 801 789 795 797 801 809 810 809 811 807 826 805 803 809 809 809 815
663 667 671 675 680 684 687 690 692 694 698 697 701 703 708 729 740 739 741 744 750 758 771 774 775 778 782 798 795 799 800 791 797 794 800 809 810 809 809 810 807 806 807 806 802 823 813
667 671 675 680 683 687 690 694 697 699 699 700 710 709 710 733 744 742 742 748 753 756 765 776 780 784 792 796 795 805 803 796 798 795 796 804 815 829 817 817 815 808 804 801 818 813 814
670 675 679 684 687 691 694 698 702 706 706 707 711 712 713 728 746 745 746 748 748 752 764 776 777 780 784 794 800 799 802 812 803 811 804 819 812 814 812 812 805 806 809 810 813 813 813
Wind_Speed
39 36 34 33 33 31 30 26 25 24 22 20 17 16 15 14 15 14 14 12 12 14 15 15 13 12 3 1 4 4 2 4 4 5 8 3 4 1 2 2 4 3 3 5 5 11 8
43 41 39 37 36 34 33 31 28 27 24 22 19 17 16 14 15 14 13 14 12 13 14 12 9 6 2 2 6 1 4 2 4 5 3 2 2 1 1 1 0 1 3 8 4 7 4
48 41 45 44 41 39 37 35 32 31 27 24 22 19 17 15 14 13 14 13 13 13 12 9 6 3 0 5 4 5 4 1 2 3 3 1 2 3 1 3 2 3 4 5 6 9 4
49 50 47 47 47 44 42 38 35 35 31 26 24 20 17 15 13 14 14 13 14 13 7 4 3 1 4 1 2 2 4 4 2 3 3 3 5 5 3 3 6 5 5 6 7 10 5
33 42 53 52 51 49 47 44 39 38 35 29 26 22 17 15 12 13 14 12 14 7 3 1 1 1 4 0 1 2 3 2 4 3 9 8 5 4 6 3 5 7 4 5 6 9 7
28 32 37 56 54 54 52 48 45 41 38 32 29 23 17 13 9 10 10 12 6 3 1 1 2 1 1 1 0 1 4 4 6 1 4 7 5 4 5 5 1 5 5 5 8 5 5
36 35 32 36 55 57 55 52 50 46 42 36 32 24 18 12 8 7 7 2 3 2 1 5 3 2 0 2 2 1 3 4 4 6 3 4 6 4 4 3 3 4 4 11 10 9 7
41 40 38 34 37 57 57 53 55 51 46 40 35 27 20 14 7 5 2 4 4 3 4 6 4 3 4 1 1 2 2 4 4 4 3 5 4 1 4 2 5 6 8 10 11 1 12
41 41 40 40 38 42 59 53 55 55 50 44 38 30 22 15 7 6 5 7 5 3 1 5 5 4 4 7 4 5 4 3 4 3 3 5 5 2 3 5 4 4 5 5 12 21 10
43 42 42 43 45 44 52 57 57 58 53 48 41 32 22 15 5 11 7 10 4 6 2 5 5 5 5 5 1 3 3 4 2 3 6 4 2 3 4 3 2 4 3 8 12 9 6
37 43 49 51 51 49 46 58 59 55 51 50 41 33 27 21 8 10 11 12 9 2 3 2 4 4 4 6 7 3 3 4 5 3 4 2 0 4 3 3 1 7 7 11 16 12 2
45 47 56 60 57 54 51 54 61 59 55 50 42 34 27 22 9 14 21 15 5 4 7 4 5 6 5 2 2 3 4 7 3 4 5 2 1 4 4 5 2 8 6 9 1 2 2
51 58 64 66 66 61 57 57 60 59 55 49 40 36 33 22 12 22 23 7 3 5 1 6 5 7 6 5 2 4 3 3 3 3 2 5 2 3 1 3 3 7 6 4 5 4 4
55 70 68 67 67 65 63 62 63 56 52 47 39 32 27 20 29 28 14 4 5 8 6 4 5 9 5 5 2 2 5 4 2 4 3 3 2 1 4 2 2 3 1 3 3 4 11
67 71 64 53 59 64 67 67 64 57 52 46 36 25 23 20 29 28 4 3 12 5 7 8 5 5 3 2 6 3 2 6 5 5 5 4 3 2 3 2 5 2 1 5 3 9 5
60 58 46 45 51 63 68 70 67 61 59 52 27 12 10 24 24 17 3 11 7 3 4 4 6 5 5 5 4 4 6 3 4 3 3 5 1 2 4 3 2 3 2 4 2 4 6
53 26 32 34 51 61 71 69 66 59 56 44 28 6 17 34 20 5 7 6 4 2 6 4 4 4 5 5 3 3 6 1 3 4 2 4 3 3 2 1 4 2 2 2 2 2 3
47 23 32 46 65 71 70 66 64 63 54 37 8 6 24 27 6 3 4 5 5 5 4 4 3 5 4 4 4 2 5 4 2 5 3 1 4 1 6 6 5 4 4 3 1 3 5
21 41 43 44 58 63 62 61 60 64 46 32 7 4 10 4 6 9 4 5 3 4 3 4 3 2 3 4 5 4 5 3 4 3 6 5 1 2 5 4 3 1 2 0 6 7 3
24 27 31 35 38 43 51 55 59 50 37 21 4 5 2 2 2 13 6 5 5 6 5 5 4 4 6 4 4 5 4 2 1 3 8 5 3 6 6 6 3 4 6 5 2 4 5
23 27 29 33 33 36 36 42 48 43 22 8 2 4 6 9 3 4 5 6 11 5 3 4 3 3 7 4 3 4 3 3 3 7 4 4 3 4 6 8 5 8 6 5 0 8 3
20 23 27 30 32 32 33 35 35 22 12 4 4 5 3 13 9 6 2 5 9 6 4 4 7 7 5 5 5 6 6 2 3 3 3 2 2 3 3 9 6 3 2 4 5 3 6
18 21 27 29 29 29 30 30 23 14 5 5 3 4 5 3 4 4 4 5 8 8 6 4 14 6 7 6 6 7 4 4 6 6 3 3 2 2 3 2 3 1 4 5 3 2 4
18 19 24 26 26 25 25 24 17 10 3 2 3 3 5 3 3 4 4 6 11 4 8 7 7 6 3 7 6 6 4 1 3 4 5 4 3 1 2 4 1 4 5 2 4 3 5
19 21 22 24 24 24 23 23 14 5 9 7 3 5 3 3 4 6 9 11 13 13 8 7 3 5 8 5 3 3 2 2 1 4 6 5 3 1 1 1 1 3 2 2 1 1 9
20 22 21 23 25 26 26 22 15 14 16 19 13 13 6 7 1 2 7 10 12 5 4 5 5 5 5 3 2 3 3 4 3 3 3 5 2 1 1 1 4 4 4 3 4 3 8
19 22 22 24 23 23 23 20 16 14 12 14 16 10 8 4 3 2 4 5 4 5 5 4 4 3 3 2 2 2 2 1 4 6 4 3 3 4 2 3 5 1 6 1 2 3 9
22 22 21 21 22 21 19 18 16 14 14 17 14 10 7 3 2 4 2 4 4 3 5 4 4 2 2 3 2 2 2 1 2 1 3 4 4 3 2 1 5 1 2 2 1 4 5
25 25 23 20 20 20 19 18 16 14 12 21 11 18 20 6 3 4 12 12 6 4 6 3 2 2 3 3 1 3 2 2 3 2 3 2 5 4 5 4 2 2 4 4 1 4 2
Wind_Direction
253 254 252 248 246 247 249 249 249 252 255 261 266 272 281 290 298 306 311 320 330 331 338 336 340 344 338 6 220 145 338 339 8 33 43 37 51 52 348 14 342 167 329 311 276 302 280
251 252 251 249 245 244 245 248 248 246 248 257 260 265 274 285 293 298 307 309 325 332 335 325 342 349 263 266 135 75 352 352 27 31 356 19 149 183 39 43 150 306 293 301 350 303 331
249 250 251 249 246 243 241 242 243 247 245 245 252 254 262 275 286 295 299 307 315 328 325 314 342 8 74 223 195 326 5 339 23 345 310 266 153 82 106 328 317 309 346 345 18 350 12
249 251 252 251 248 245 240 236 236 241 242 241 245 248 254 269 281 292 298 306 313 321 314 324 339 358 240 181 224 58 38 80 329 332 261 287 149 100 33 308 11 24 56 11 321 15 350
263 254 253 248 249 247 239 234 231 236 240 238 238 242 244 255 270 281 294 306 313 314 252 276 194 166 270 259 219 356 31 28 340 64 62 94 78 77 15 40 10 16 323 315 314 341 348
277 271 261 245 248 248 243 234 230 228 233 236 238 230 239 250 253 276 299 305 304 302 172 149 216 289 11 231 240 34 85 87 66 63 35 44 53 70 26 47 309 305 309 278 291 281 298
280 276 270 263 236 246 244 236 230 227 225 228 231 227 224 225 239 275 304 290 17 340 201 217 174 129 291 315 267 138 51 84 36 50 76 20 70 103 113 110 187 239 250 279 278 275 299
280 276 273 268 257 233 234 232 224 227 223 220 225 218 214 207 216 252 255 118 133 122 326 238 258 279 238 192 126 270 116 84 65 95 70 39 114 183 141 69 36 354 302 294 302 213 309
276 271 269 273 266 250 231 230 217 218 218 214 216 212 203 197 202 199 169 149 131 133 201 289 199 179 185 157 197 203 119 105 111 91 90 136 166 144 109 58 28 270 250 276 286 313 222
275 267 267 270 267 259 238 223 216 208 209 212 208 203 193 180 182 172 150 146 149 167 21 254 203 242 137 140 194 203 147 127 86 130 126 132 177 66 82 101 40 301 241 277 280 324 301
271 275 276 268 262 253 245 221 209 201 197 201 200 193 186 194 178 173 161 154 144 99 267 132 153 145 137 163 148 46 48 46 140 127 110 168 266 46 102 237 283 250 285 261 281 276 290
276 280 276 268 256 245 235 226 202 195 191 195 191 187 179 186 173 162 146 142 115 66 240 186 142 146 126 229 118 89 69 54 76 76 32 52 327 142 192 259 240 270 268 291 77 163 349
279 281 277 265 250 239 229 222 205 190 183 177 178 185 174 180 156 157 148 117 91 186 126 173 174 145 154 156 101 105 85 56 104 105 41 357 333 301 265 303 320 354 8 343 350 3 263
288 288 278 265 242 228 217 207 192 183 175 166 172 166 158 180 162 160 146 86 187 192 184 134 125 114 160 135 37 97 109 112 56 91 104 142 269 265 327 175 276 28 36 114 264 307 294
302 285 274 255 233 215 205 198 187 173 164 152 149 158 151 160 159 158 89 177 200 201 158 130 83 117 143 96 125 111 106 162 165 170 134 147 259 280 310 340 128 241 55 187 221 248 259
312 284 251 241 227 207 192 178 171 161 152 147 137 138 170 155 165 146 118 218 179 167 116 109 148 144 155 150 115 135 155 205 131 159 138 185 175 239 281 26 18 124 239 22 312 309 309
355 255 233 234 198 178 161 156 154 154 142 139 121 113 171 175 160 141 195 217 147 143 124 120 129 118 135 142 129 146 160 92 135 156 99 123 119 273 24 178 197 344 25 25 253 216 279
12 42 206 163 150 147 147 148 147 138 135 129 130 129 168 159 162 172 167 200 137 158 96 103 97 110 117 125 107 120 162 151 123 148 104 149 134 245 248 273 220 182 160 126 56 296 241
36 39 72 118 132 137 138 138 138 140 141 131 120 90 142 190 170 182 197 171 132 129 121 114 109 116 114 128 109 129 102 18 102 121 157 176 56 2 346 2 12 288 272 158 302 251 232
78 87 82 81 100 115 127 134 137 140 137 126 110 122 116 200 187 175 158 139 110 52 85 97 104 87 104 92 54 144 118 179 98 110 110 101 127 157 190 219 176 292 299 329 335 277 328
104 104 106 115 118 120 127 133 144 144 136 120 107 168 151 183 230 175 108 128 129 137 79 113 69 145 131 120 98 114 105 128 32 134 72 99 190 184 238 257 252 261 275 317 248 268 295
124 126 127 125 122 127 131 138 155 153 137 104 115 144 84 146 154 120 118 165 138 90 145 140 137 120 116 126 162 171 136 179 158 24 97 41 222 191 258 248 228 251 209 305 305 329 304
134 133 126 125 125 129 131 146 160 154 126 87 193 65 97 108 115 144 143 144 124 139 30 126 129 111 98 138 129 144 153 166 158 139 133 142 164 186 262 299 325 27 203 228 240 27 302
133 125 125 125 125 129 136 145 152 145 177 88 103 164 99 93 127 111 106 130 144 112 121 118 95 97 137 101 83 70 75 140 156 197 157 140 183 186 278 346 18 237 118 113 314 107 4
142 135 131 128 129 135 139 140 131 159 169 149 158 84 98 77 76 106 128 113 93 92 84 96 53 119 133 86 83 91 14 109 135 192 186 167 147 175 129 309 226 344 165 8 352 78 7
158 151 143 137 135 140 144 141 122 114 115 90 60 87 90 125 30 34 105 132 122 104 66 74 40 68 74 82 89 135 177 144 169 108 116 143 37 263 188 220 244 224 127 179 200 227 1
151 156 146 142 139 142 145 134 108 99 111 98 55 83 89 95 30 28 108 128 100 82 101 115 142 67 48 98 106 152 176 177 166 168 173 133 168 215 182 225 286 269 298 306 192 278 341
154 146 142 143 142 143 141 140 113 100 88 98 63 74 119 86 28 19 78 114 87 100 130 164 92 357 52 81 127 171 132 165 96 113 171 166 155 195 137 209 275 307 350 151 192 312 338
152 149 149 148 144 138 135 135 123 106 98 99 66 66 89 86 121 63 70 57 66 124 123 46 131 114 152 99 130 115 128 61 138 213 338 256 178 180 174 219 179 138 147 121 87 294 324